Location: Karcze
(52.0945°N, 22.4786°E)
Time: 22:04:41
(UTC+00:00)

Transit 4A - Pass Details

Date: 02 August 2021
Orbit: 871 x 974 km, 66.8° (Epoch: 18 September)

Event Time Altitude Azimuth Distance (km) Brightness Sun altitude
Exits shadow 21:12:25 24° 125° (SE) 1,731 8.9 -18.0°
Maximum altitude 21:13:21 25° 110° (ESE) 1,688 8.9 -18.1°
Drops below altitude 10° 21:17:59 10° 57° (ENE) 2,528 10.3 -18.3°
Sets 21:20:51 0° 45° (NE) 3,469 11.3 -18.5°
